AirNav   Everest Fuels
 
 274 users online  

7B9 Ellington Airport
Ellington, Connecticut, USA

GOING TO ELLINGTON?


FAA INFORMATION EFFECTIVE 28 FEBRUARY 2019

Location

FAA Identifier: 7B9
Lat/Long: 41-55-31.5000N / 072-27-25.6000W
41-55.525000N / 072-27.426667W
41.9254167 / -72.4571111
(estimated)
Elevation: 253 ft. / 77 m (estimated)
Variation: 15W (1985)
From city: 2 miles N of ELLINGTON, CT
Time zone: UTC -5 (UTC -4 during Daylight Saving Time)
Zip code: 06029

Airport Operations

Airport use: Open to the public
Activation date: 04/1968
Control tower: no
ARTCC: BOSTON CENTER
FSS: BRIDGEPORT FLIGHT SERVICE STATION
NOTAMs facility: BDR (NOTAM-D service available)
Attendance: 0800-1800
Pattern altitude: ACFT TFC PAT ON E SIDE OF ARPT ONLY (1250 FT MSL). HEL TFC PAT ON W SIDE OF ARPT ONLY (1000 FT MSL).
Wind indicator: lighted
Segmented circle: no
Lights: DUSK-2400. NON-STD LIRL RWY 01/19 OPRS DUSK - 2400; AFTER 0000 FOR NON-STD LIRL RWY 01/19 CALL 860-871-2054.

Airport Communications

CTAF/UNICOM: 123.0
WX ASOS at BDL (10 nm W): PHONE 860-386-3480
WX ASOS at HFD (14 nm SW): PHONE 860-527-5837
WX ASOS at IJD (16 nm SE): 133.675 (860-456-8839)
WX ASOS at BAF (18 nm NW): 127.1 (413-568-2267)

Nearby radio navigation aids

VOR radial/distance  VOR name  Freq  Var
HFDr026/17.5HARTFORD VOR/DME114.9013W
BAFr155/18.3BARNES VORTAC113.0014W
PUTr280/27.4PUTNAM VOR/DME117.4014W
ORWr331/30.2NORWICH VOR/DME110.0014W
CTRr148/31.0CHESTER VOR/DME115.1013W
MADr029/38.2MADISON VOR/DME110.4013W

Airport Services

Fuel available: 100LL
Parking: hangars and tiedowns
Airframe service: MAJOR
Powerplant service: MAJOR

Runway Information

Runway 1/19

Dimensions: 1800 x 50 ft. / 549 x 15 m
Surface: asphalt, in fair condition
Weight bearing capacity: 
Single wheel: 9.0
Runway edge lights: non-standard
NON-STD LIRL DUE TO SPACING.
Runway edge markings: RWY MARKINGS FADED.
RUNWAY 1  RUNWAY 19
Latitude: 41-55.377868N41-55.673293N
Longitude: 072-27.409568W072-27.442492W
Traffic pattern: leftleft
Runway heading: 010 magnetic, 355 true190 magnetic, 175 true
Markings: numbers only, in poor conditionnumbers only, in poor condition
Obstructions: 33 ft. trees, 440 ft. from runway, 60 ft. left of centerline, 7:1 slope to clear
RWY 01: +25 FT BRUSH, 25 FT FM THR, 93 FT LEFT; 8 FT SEASONAL CORN CROP, 150 FT FM THR ACRS RWY; +6FT BRUSH, 52 FT FM THR.
67 ft. trees, 1400 ft. from runway, 240 ft. left of centerline, 17:1 slope to clear

Airport Ownership and Management from official FAA records

Ownership: Privately-owned
Owner: J.L.M. ASSOC
73 SERGEANT ST
HOLYOKE, MA 01040
Phone 413-539-9861
Manager: LARRY DUROCHER
P.O. BOX 13
SOUTHWICK, MA 01077
Phone 860-614-1854

Airport Operational Statistics

Aircraft based on the field: 34
Single engine airplanes: 20
Helicopters: 8
Ultralights: 6
    
Aircraft operations: avg 74/day *
99% local general aviation
1% transient general aviation
<1% air taxi
* for 12-month period ending 31 March 2015

Additional Remarks

EXTSV HEL TRNG OPNS.
NON-STD THR LGTS.
HNGRS EAST OF RWY PENETRATE PART 77 SFCS (7:1 SIDE SLOPES) RWY 19 APCH END.
FOR CD CTC YANKEE APCH AT 860-386-3597

Instrument Procedures

There are no published instrument procedures at 7B9.

Some nearby airports with instrument procedures:

KBDL - Bradley International Airport (10 nm W)
KHFD - Hartford-Brainard Airport (14 nm SW)
KIJD - Windham Airport (16 nm SE)
KCEF - Westover Air Reserve Base/Metropolitan Airport (16 nm N)
KBAF - Westfield-Barnes Regional Airport (18 nm NW)
 
Loc | Ops | Rwys | IFR | FBO | Links
Com | Nav | Svcs | Stats | Notes

Silver City Flying Club
 
Area around 7B9 (Ellington Airport)
 
Road maps at: MapQuest Bing Google
 
Aerial photo
WARNING: Photo may not be current or correct
Aerial photo of 7B9 (Ellington Airport)
Photo by David Gerstein
Photo taken 25-Nov-2017
looking north.

Do you have a better or more recent aerial photo of Ellington Airport that you would like to share? If so, please send us your photo.

 
Sectional chart

 
Airport distance calculator
Flying to Ellington Airport? Find the distance to fly.

From to 7B9

Sunrise and sunset
Times for 19-Mar-2019
 Local
(UTC-4)
 Zulu
(UTC)
Morning civil twilight06:2810:28
Sunrise06:5610:56
Sunset18:5922:59
Evening civil twilight19:2723:27

Current date and time
Zulu (UTC)  19-Mar-2019 08:52:46
Local (UTC-4)  19-Mar-2019 04:52:46
 
METAR
KBDL 
10nm W 
190751Z 24004KT 10SM CLR M02/M08 A3033 RMK AO2 SLP273 T10171078
KHFD 
14nm SW 
190753Z AUTO 00000KT 10SM CLR M03/M06 A3035 RMK AO2 SLP278 T10281061
KIJD 
16nm SE 
190752Z AUTO 00000KT 10SM BKN070 M06/M09 A3033 RMK AO2 SLP274 T10561089
KCEF 
17nm N 
190756Z AUTO 00000KT 10SM CLR M06/M08 A3031 RMK AO2 SLP273 T10601081
KBAF 
19nm NW 
190753Z AUTO 00000KT 10SM CLR M07/M09 A3032 RMK AO2 SLP274 T10671089 TSNO
TAF
KBDL 
10nm W 
190804Z 1908/2012 VRB03KT P6SM SKC FM191300 31006KT P6SM FEW060 FM200100 00000KT P6SM SCT140
KCEF 
17nm N 
190200Z 1902/2008 VRB06KT 9999 BKN050 620505 QNH3029INS BECMG 1908/1909 VRB06KT 9999 FEW050 QNH3030INS BECMG 1915/1916 29010G15KT 9999 SCT060 QNH3033INS TEMPO 1916/1923 29015G25KT 520004 BECMG 1922/1923 VRB06KT 9999 SCT050 QNH3035INS TX07/1920Z TNM07/1911Z LAST NO AMDS AFT 1903 NEXT 1910
KBAF 
19nm NW 
190535Z 1906/2006 00000KT P6SM FEW200 FM191300 31006KT P6SM SKC FM200100 00000KT P6SM FEW150
NOTAMs
Click for the latest NOTAMs
NOTAMs are issued by the DoD/FAA and will open in a separate window not controlled by AirNav.

 

 
 

FBO, Fuel Providers, and Aircraft Ground Support

  
 Business Name 
 
 Contact 
 
 Services / Description 
 
Fuel Prices
 
Comments
  
Northeast Helicopters 860-871-2054
no information available

If you are affiliated with Northeast Helicopters and would like to show here your services, contact info, web link, logo, and more, click here
100LL
SS $5.90 
 Updated 12-Sep-2018
 
   write
SS=Self service
Update Fuel Prices
 

Would you like to see your business listed on this page?

 If your business provides an interesting product or service to pilots, flight crews, aircraft, or users of the Ellington Airport, you should consider listing it here.  To start the listing process, click on the button below
 
Add a business
 

Other Pages about Ellington Airport

www.ellingtonairport.com
 
Update a link
 
Copyright © AirNav, LLC. All rights reserved. Privacy Policy  Contact